Regional Weather Roundup
Issued by NWS

Home | Current Version | Previous Version | Text Only | Print | Product List | Glossary On
Versions: 1 2 3 4 5 6 7 8 9 10 11 12 13 14 15 16 17 18 19 20 21 22 23 24 25 26 27 28 29 30 31 32 33 34 35 36 37 38 39 40 41 42 43 44 45 46 47 48 49 50
000
ASUS43 KFSD 030810
RWRSD

WEATHER ROUNDUP FOR SOUTH DAKOTA
NATIONAL WEATHER SERVICE SIOUX FALLS SD
300 AM CDT WED SEP 03 2014

NOTE: "FAIR" INDICATES FEW OR NO CLOUDS BELOW 12,000 FEET WITH NO
SIGNIFICANT WEATHER AND/OR OBSTRUCTIONS TO VISIBILITY.


SDZ001>005-009-010-012>017-030900-
NORTHWEST AND NORTH CENTRAL SOUTH DAKOTA

CITY           SKY/WX    TMP DP  RH WIND       PRES   REMARKS
BUFFALO          N/A     52  45  77 NE10      29.67F
FAITH            N/A     56  49  77 E9        29.71F
MOBRIDGE       CLEAR     59  53  80 E9        29.69F
$$

SDZ012>016-024>037-041>051-057-063-072>074-030900-
SOUTHWEST AND SOUTH CENTRAL SOUTH DAKOTA

CITY           SKY/WX    TMP DP  RH WIND       PRES   REMARKS
RAPID CTY ARPT CLEAR     54  45  71 CALM      29.71F
PIERRE         CLEAR     62  59  90 SE6       29.68F
CUSTER         CLEAR     49  36  61 NW5       29.85F
ELLSWORTH AFB  CLEAR     60  46  60 SW6       29.70F
PHILIP         CLEAR     54  48  80 CALM      29.68F
PINE RIDGE     CLEAR     66  57  72 SW10      29.72F
WINNER         FAIR      72  63  73 S23G30    29.71F
$$

SDZ004>011-016>023-039-040-030900-
NORTHEAST SOUTH DAKOTA

CITY           SKY/WX    TMP DP  RH WIND       PRES   REMARKS
ABERDEEN       CLEAR     57  56  96 CALM      29.74F
WATERTOWN      MOCLDY    59  57  93 SE9       29.80F
SISSETON         N/A     68  57  68 SW14      29.74F
$$

SDZ017-020-022-023-036>040-048>070-030900-
SOUTHEAST SOUTH DAKOTA

CITY           SKY/WX    TMP DP  RH WIND       PRES   REMARKS
SIOUX FALLS    PTCLDY    65  57  75 S8        29.83F
HURON          CLEAR     64  58  80 SE10      29.75F
CHAMBERLAIN    CLEAR     67  61  79 SE3       29.73F
MITCHELL       CLEAR     65  59  81 S14       29.77F
YANKTON        CLEAR     64  57  77 SE8       29.82F
$$

ABBREVIATIONS USED IN REMARKS
   TC - TEMPERATURE IN CELSIUS
  WCI - WIND CHILL INDEX
   HX - HEAT INDEX
  VSB - VISIBILITY



USA.gov is the U.S. government's official web portal to all federal, state and local government web resources and services.